Satellite-Ground Cal/Val Region Overpasses Predictions

Prediction of Satellite NPP Overpassing Cal/Val Region: PacNW

Region Location: (Latitude: 10.00, Longitude: 139.50) to (Latitude: 22.70, Longitude: 165.60).

Table of predicted overpasses for the next 14.0 days since TLE Epoch: 8/30/2014
Interval Starting Time Starting Location Ending Time Ending Location
1 08/30/2014 15:32:03 ( 22.66, 153.93) 08/30/2014 15:35:38 ( 10.04, 150.92)
2 08/31/2014 02:41:09 ( 10.04, 161.43) 08/31/2014 02:44:44 ( 22.65, 158.42)
3 08/31/2014 15:13:02 ( 22.68, 158.70) 08/31/2014 15:16:38 ( 10.00, 155.67)
4 09/01/2014 02:22:52 ( 12.60, 165.59) 09/01/2014 02:25:44 ( 22.69, 163.16)
5 09/01/2014 04:03:38 ( 10.01, 140.82) 09/01/2014 04:05:14 ( 15.65, 139.50)
6 09/01/2014 14:54:03 ( 22.64, 163.44) 09/01/2014 14:57:38 ( 10.02, 160.43)
7 09/02/2014 03:44:39 ( 10.05, 145.56) 09/02/2014 03:48:14 ( 22.66, 142.55)
8 09/02/2014 14:38:08 ( 11.81, 165.59) 09/02/2014 14:38:38 ( 10.05, 165.19)
9 09/02/2014 16:16:33 ( 22.67, 142.83) 09/02/2014 16:20:07 ( 10.05, 139.81)
10 09/03/2014 03:25:38 ( 10.02, 150.32) 09/03/2014 03:29:13 ( 22.64, 147.31)
11 09/03/2014 15:57:32 ( 22.69, 147.59) 09/03/2014 16:01:08 ( 10.01, 144.56)
12 09/04/2014 03:06:38 ( 10.00, 155.08) 09/04/2014 03:10:14 ( 22.68, 152.06)
13 09/04/2014 15:38:33 ( 22.65, 152.34) 09/04/2014 15:42:08 ( 10.03, 149.32)
14 09/05/2014 02:47:38 ( 10.04, 159.83) 09/05/2014 02:51:13 ( 22.66, 156.82)
15 09/05/2014 15:19:32 ( 22.67, 157.10) 09/05/2014 15:23:07 ( 10.05, 154.08)
16 09/06/2014 02:28:38 ( 10.02, 164.59) 09/06/2014 02:32:14 ( 22.69, 161.56)
17 09/06/2014 15:00:32 ( 22.69, 161.86) 09/06/2014 15:04:08 ( 10.02, 158.83)
18 09/07/2014 03:51:08 ( 10.05, 143.96) 09/07/2014 03:54:43 ( 22.67, 140.95)
19 09/07/2014 14:42:42 ( 18.55, 165.59) 09/07/2014 14:45:07 ( 10.04, 163.59)
20 09/07/2014 16:23:02 ( 22.66, 141.23) 09/07/2014 16:25:02 ( 15.62, 139.51)
21 09/08/2014 03:32:08 ( 10.03, 148.72) 09/08/2014 03:35:43 ( 22.65, 145.71)
22 09/08/2014 16:04:02 ( 22.68, 145.99) 09/08/2014 16:07:37 ( 10.06, 142.97)
23 09/09/2014 03:13:07 ( 10.01, 153.48) 09/09/2014 03:16:43 ( 22.69, 150.46)
24 09/09/2014 15:45:01 ( 22.70, 150.75) 09/09/2014 15:48:37 ( 10.02, 147.72)
25 09/10/2014 02:54:08 ( 10.05, 158.23) 09/10/2014 02:57:43 ( 22.67, 155.22)
26 09/10/2014 15:26:02 ( 22.66, 155.49) 09/10/2014 15:29:37 ( 10.04, 152.48)
27 09/11/2014 02:35:08 ( 10.03, 162.99) 09/11/2014 02:38:43 ( 22.65, 159.98)
28 09/11/2014 15:07:01 ( 22.68, 160.25) 09/11/2014 15:10:36 ( 10.06, 157.24)
29 09/12/2014 02:18:43 ( 19.17, 165.59) 09/12/2014 02:19:43 ( 22.69, 164.72)
30 09/12/2014 03:57:37 ( 10.01, 142.38) 09/12/2014 04:01:02 ( 22.04, 139.51)
31 09/12/2014 14:48:01 ( 22.69, 165.01) 09/12/2014 14:51:37 ( 10.02, 161.99)
32 09/12/2014 16:29:31 ( 22.70, 139.64) 09/12/2014 16:29:40 ( 22.17, 139.51)


NCC Satellite Cal/Val Overpasses Prediction Service
